| time (UTC) | temp F | wind direction | speed MPH | gust MPH | rain 1hr in | rain 24hr in | rain mn in | humidity % | barometer mb |
| 20260502221504 | 53 | 146 | 3.0 | 10.0 | 0.00 | 0.06 | 0.06 | 96 | 1010.6 |
| 20260502220006 | 53 | 157 | 3.0 | 12.0 | 0.00 | 0.06 | 0.06 | 96 | 1010.7 |
| 20260502211504 | 53 | 148 | 4.0 | 13.0 | 0.00 | 0.06 | 0.06 | 96 | 1010.6 |
| 20260502210006 | 53 | 140 | 4.0 | 12.0 | 0.01 | 0.06 | 0.06 | 96 | 1010.6 |
| 20260502204504 | 53 | 145 | 4.0 | 11.0 | 0.01 | 0.06 | 0.06 | 96 | 1010.6 |
| 20260502203005 | 53 | 144 | 4.0 | 15.0 | 0.01 | 0.06 | 0.06 | 96 | 1010.6 |
| 20260502201504 | 53 | 141 | 4.0 | 14.0 | 0.01 | 0.06 | 0.06 | 96 | 1010.6 |
| 20260502200005 | 53 | 155 | 4.0 | 12.0 | 0.00 | 0.06 | 0.06 | 96 | 1010.6 |
| 20260502194504 | 53 | 166 | 4.0 | 11.0 | 0.00 | 0.06 | 0.06 | 96 | 1010.6 |
| 20260502193006 | 53 | 145 | 5.0 | 12.0 | 0.00 | 0.06 | 0.06 | 96 | 1010.6 |
| 20260502191504 | 53 | 149 | 3.0 | 14.0 | 0.00 | 0.06 | 0.06 | 96 | 1010.6 |
| 20260502190005 | 53 | 146 | 4.0 | 15.0 | 0.01 | 0.06 | 0.06 | 96 | 1010.7 |
| 20260502184504 | 53 | 144 | 4.0 | 9.0 | 0.01 | 0.06 | 0.06 | 96 | 1010.7 |
| 20260502183006 | 53 | 152 | 5.0 | 15.0 | 0.01 | 0.06 | 0.06 | 96 | 1010.7 |
| 20260502181504 | 53 | 143 | 4.0 | 10.0 | 0.01 | 0.06 | 0.06 | 96 | 1010.8 |
| 20260502163006 | 52 | 118 | 5.0 | 11.0 | 0.01 | 0.04 | 0.04 | 94 | 1011.2 |
| 20260502161503 | 52 | 98 | 4.0 | 12.0 | 0.00 | 0.03 | 0.03 | 94 | 1011.1 |
| 20260502151503 | 53 | 138 | 3.0 | 12.0 | 0.01 | 0.03 | 0.03 | 93 | 1011.8 |
| 20260502123005 | 53 | 199 | 8.0 | 16.0 | 0.00 | 0.00 | 0.00 | 93 | 1013.6 |
| 20260502121503 | 53 | 196 | 10.0 | 22.0 | 0.00 | 0.00 | 0.00 | 93 | 1013.6 |
| 20260502114504 | 53 | 195 | 9.0 | 18.0 | 0.00 | 0.00 | 0.00 | 93 | 1013.9 |
| 20260502111503 | 53 | 199 | 8.0 | 17.0 | 0.00 | 0.00 | 0.00 | 93 | 1013.9 |
| 20260502104503 | 53 | 200 | 10.0 | 25.0 | 0.00 | 0.00 | 0.00 | 93 | 1014.1 |
| 20260502101503 | 53 | 199 | 9.0 | 21.0 | 0.00 | 0.00 | 0.00 | 92 | 1014.2 |
| 20260502091504 | 53 | 198 | 4.0 | 13.0 | 0.00 | 0.00 | 0.00 | 92 | 1014.4 |
| 20260502070006 | 53 | 203 | 6.0 | 16.0 | 0.00 | 0.00 | 0.00 | 93 | 1014.7 |
| 20260502064504 | 52 | 198 | 7.0 | 18.0 | 0.00 | 0.00 | 0.00 | 93 | 1014.7 |
| 20260502063005 | 52 | 204 | 7.0 | 15.0 | 0.00 | 0.00 | 0.00 | 93 | 1014.8 |
| 20260502060005 | 52 | 201 | 9.0 | 19.0 | 0.00 | 0.00 | 0.00 | 94 | 1014.8 |
| 20260502053006 | 52 | 204 | 6.0 | 18.0 | 0.00 | 0.00 | 0.00 | 94 | 1014.7 |
| 20260502051503 | 52 | 203 | 7.0 | 15.0 | 0.00 | 0.00 | 0.00 | 94 | 1014.8 |
| 20260502050005 | 52 | 204 | 8.0 | 14.0 | 0.00 | 0.00 | 0.00 | 94 | 1014.8 |
| 20260502043005 | 52 | 204 | 6.0 | 14.0 | 0.00 | 0.00 | 0.00 | 93 | 1014.9 |
| 20260502041505 | 52 | 211 | 4.0 | 16.0 | 0.00 | 0.00 | 0.00 | 94 | 1015.1 |
| 20260502034504 | 52 | 205 | 8.0 | 14.0 | 0.00 | 0.00 | 0.00 | 94 | 1015.3 |
| 20260502033005 | 52 | 212 | 9.0 | 19.0 | 0.00 | 0.00 | 0.00 | 94 | 1015.4 |
| 20260502031503 | 53 | 213 | 3.0 | 20.0 | 0.00 | 0.00 | 0.00 | 94 | 1015.5 |
| 20260502030005 | 52 | 204 | 4.0 | 12.0 | 0.00 | 0.00 | 0.00 | 94 | 1015.7 |
| 20260502024503 | 52 | 208 | 6.0 | 13.0 | 0.00 | 0.00 | 0.00 | 94 | 1015.7 |
| 20260502023005 | 52 | 206 | 7.0 | 16.0 | 0.00 | 0.00 | 0.00 | 94 | 1015.8 |
| 20260502014503 | 52 | 206 | 2.0 | 10.0 | 0.00 | 0.00 | 0.00 | 95 | 1016.4 |
| 20260502013005 | 52 | 206 | 3.0 | 12.0 | 0.00 | 0.00 | 0.00 | 95 | 1016.6 |
| 20260502011503 | 53 | 220 | 2.0 | 11.0 | 0.00 | 0.00 | 0.00 | 95 | 1016.8 |
| 20260502010005 | 53 | 210 | 2.0 | 7.0 | 0.00 | 0.00 | 0.00 | 95 | 1016.9 |
| 20260502004503 | 53 | 208 | 4.0 | 11.0 | 0.00 | 0.00 | 0.00 | 95 | 1017.1 |
| 20260502003005 | 53 | 207 | 6.0 | 19.0 | 0.00 | 0.00 | 0.00 | 95 | 1017.3 |
| 20260502001504 | 53 | 206 | 7.0 | 15.0 | 0.00 | 0.00 | 0.00 | 94 | 1017.2 |
| 20260502000005 | 53 | 205 | 4.0 | 14.0 | 0.00 | 0.00 | 0.00 | 94 | 1017.3 |
| 20260501234503 | 53 | 212 | 4.0 | 10.0 | 0.00 | 0.00 | 0.00 | 94 | 1017.4 |
| 20260501233006 | 53 | 204 | 3.0 | 12.0 | 0.00 | 0.00 | 0.00 | 94 | 1017.5 |
| 20260501231504 | 53 | 213 | 4.0 | 10.0 | 0.00 | 0.00 | 0.00 | 94 | 1017.7 |
| 20260501230008 | 53 | 209 | 3.0 | 9.0 | 0.00 | 0.00 | 0.00 | 94 | 1017.7 |
| 20260501224503 | 53 | 211 | 1.0 | 10.0 | 0.00 | 0.00 | 0.00 | 94 | 1017.7 |
| 20260501223006 | 53 | 228 | 1.0 | 5.0 | 0.00 | 0.00 | 0.00 | 94 | 1017.8 |